Accueil
METAR-TAF:

METAR-TAF

Aéroports :

Melun, France

Aérodrome de Melun-Villaroche

latitude: 48-37N, longitude: 002-41E, altitude: 95 m

Observation

Le bulletin a été fait il y a 15 minutes, à 16:30 UTC
Vent 9 kt de ouest
Température 20°C
Humidité 56%
Pression 1021 hPa
Visibilité 10 km ou plus
Quelques nuages à une hauteur de 4800 ft
Nuages fragmentés à une hauteur de 5800 ft
Nuages fragmentés à une hauteur de 8600 ft

METAR: LFPM 191630Z AUTO 27009KT 9999 FEW048 BKN058 BKN086 20/11 Q1021

Heure: 18:45 (16:45 UTC)


TAF: absent

Observations et prévisions météorologiques de plus de 4000 aéroports (messages METAR et TAF).

Les stations disponibles sont représentées par des disques jaunes et rouges sur la carte.

Passer la souris dessus pour voir le nom de la station.

Cliquer dessus pour voir les observations et prévisions météorologiques.

Pour changer de carte: cliquez sur les boutons verts avec une croix noire pour zoomer, sur le bouton vert avec un tiret pour effectuer un zoom arrière, ou sur les flèches vertes pour les cartes adjacentes.


METAR-TAF: